Hourly Data Report for July 18, 2012

HALIFAX STANFIELD INT'L A
NOVA SCOTIA

44°52'48.060" N
63°30'00.050" W
145.40 m
8202250
71395
YHZ

Download Data

Hourly Data (July 2012)
Hourly Data Report for July 18, 2012
TIME
LST
Temp Definition
°C
Dew Point Definition
°C
Rel Hum Definition
%
Precip. Amount Definition
mm

Wind Dir Definition
10's deg

Wind Spd Definition
km/h
Visibility Definition
km
Stn Press Definition
kPa
Hmdx Definition


Wind Chill Definition


Weather Definition


00:00 18.0 17.8 99   17 17 12.9 98.90     Rain Showers
01:00 17.7 17.7 100   17 20 12.9 98.81     Rain Showers
02:00 17.8 17.8 100   18 24 0.8 98.74     Fog
03:00 18.5 18.5 100   17 22 8.0 98.65     Rain Showers, Fog
04:00 18.8 18.8 100   22 17 3.2 98.67     Fog
05:00 18.8 18.7 99   20 13 4.8 98.67     Fog
06:00 18.5 18.4 99   23 11 4.8 98.66     Fog
07:00 18.8 18.5 98   21 13 4.8 98.65     Fog
08:00 19.8 19.1 96   23 17 4.8 98.73     Fog
09:00 21.9 20.3 91   25 17 16.1 98.74 30   Mostly Cloudy
10:00 23.6 19.6 78   30 32 24.1 98.82 31   Mostly Cloudy
11:00 22.8 18.9 79   32 24 24.1 98.89 29   Mostly Cloudy
12:00 25.2 18.7 67   29 28 24.1 98.93 32   Mostly Cloudy
13:00 25.5 18.5 65   29 24 24.1 98.95 32   Mainly Clear
14:00 26.0 17.8 61   31 26 24.1 99.02 32   Mostly Cloudy
15:00 25.8 17.9 62   30 19 24.1 99.04 32   Mostly Cloudy
16:00 26.3 18.5 62   32 15 24.1 99.07 33   Mostly Cloudy
17:00 26.1 17.6 60   28 17 24.1 99.08 32   Mainly Clear
18:00 25.3 17.6 62   30 13 24.1 99.08 31   Mostly Cloudy
19:00 25.0 16.9 61   29 17 24.1 99.14 30   Cloudy
20:00 23.1 16.4 66   29 7 24.1 99.19 28   Mainly Clear
21:00 22.8 16.2 66   28 9 24.1 99.26 28   Mostly Cloudy
22:00 22.0 16.0 69   26 9 24.1 99.28 27   Mostly Cloudy
23:00 21.4 15.9 71   26 9 24.1 99.29 26   Cloudy

Notes on Data Quality.

Legend

  • E = Estimated
  • M = Missing
  • NA = Not Available*
  • [empty] = Indicates an unobserved value
Date modified: